Hourly Weather Ryabcevschina

Today, 15 April, Thursday

Time Temperature Precipitation Wind Pressure Humidity
00:00 +7°C° 0.2 mm 3 mps 742 mmHg 96%
01:00 +7°C° 0.2 mm 3 mps 742 mmHg 96%
02:00 +6°C° 0.2 mm 4 mps 743 mmHg 95%
03:00 +7°C° 0 mm 3 mps 743 mmHg 96%
04:00 +7°C° 0 mm 3 mps 743 mmHg 96%
05:00 +7°C° 0 mm 3 mps 743 mmHg 96%
06:00 +6°C° 0 mm 4 mps 743 mmHg 95%
07:00 +6°C° 0 mm 4 mps 743 mmHg 94%
08:00 +6°C° 0 mm 4 mps 743 mmHg 93%
09:00 +6°C° 0.2 mm 4 mps 743 mmHg 92%
10:00 +6°C° 0.2 mm 4 mps 743 mmHg 91%
11:00 +6°C° 0.2 mm 5 mps 743 mmHg 90%
12:00 +5°C° 1 mm 5 mps 743 mmHg 91%
13:00 +5°C° 1 mm 5 mps 742 mmHg 92%
14:00 +3°C° 1 mm 5 mps 742 mmHg 93%
15:00 +3°C° 0.7 mm 5 mps 742 mmHg 93%
16:00 +3°C° 0.7 mm 5 mps 742 mmHg 94%
17:00 +3°C° 0.7 mm 5 mps 741 mmHg 94%
18:00 +3°C° 0.6 mm 5 mps 741 mmHg 94%
19:00 +3°C° 0.6 mm 6 mps 741 mmHg 95%
20:00 +4°C° 0.6 mm 6 mps 741 mmHg 95%
21:00 +4°C° 0.6 mm 6 mps 741 mmHg 95%
22:00 +4°C° 0.6 mm 6 mps 740 mmHg 95%
23:00 +5°C° 0.6 mm 5 mps 740 mmHg 96%

Tomorrow, 16 April, Friday

Time Temperature Precipitation Wind Pressure Humidity
00:00 +5°C° 0.1 mm 5 mps 740 mmHg 96%
01:00 +6°C° 0.1 mm 5 mps 740 mmHg 96%
02:00 +6°C° 0.1 mm 4 mps 740 mmHg 97%
03:00 +6°C° 0 mm 4 mps 740 mmHg 96%
04:00 +6°C° 0 mm 4 mps 740 mmHg 96%
05:00 +6°C° 0 mm 4 mps 740 mmHg 96%
06:00 +7°C° 0 mm 4 mps 741 mmHg 93%
07:00 +7°C° 0 mm 4 mps 741 mmHg 89%
08:00 +8°C° 0 mm 4 mps 741 mmHg 86%
09:00 +9°C° 0.5 mm 5 mps 741 mmHg 85%
10:00 +9°C° 0.5 mm 5 mps 741 mmHg 83%
11:00 +10°C° 0.5 mm 5 mps 741 mmHg 81%
12:00 +11°C° 0.5 mm 6 mps 741 mmHg 73%
13:00 +13°C° 0.5 mm 6 mps 741 mmHg 66%
14:00 +14°C° 0.5 mm 6 mps 741 mmHg 58%
15:00 +13°C° 0.1 mm 6 mps 742 mmHg 60%
16:00 +13°C° 0.1 mm 5 mps 742 mmHg 62%
17:00 +13°C° 0.1 mm 4 mps 742 mmHg 64%
18:00 +11°C° 0.3 mm 4 mps 742 mmHg 72%
19:00 +10°C° 0.3 mm 4 mps 743 mmHg 80%
20:00 +7°C° 0.3 mm 4 mps 743 mmHg 88%
21:00 +7°C° 0.1 mm 4 mps 743 mmHg 90%
22:00 +7°C° 0.1 mm 3 mps 743 mmHg 92%
23:00 +7°C° 0.1 mm 3 mps 744 mmHg 94%

Day after tomorrow, 17 April, Saturday

Time Temperature Precipitation Wind Pressure Humidity
00:00 +7°C° 0 mm 3 mps 744 mmHg 95%
01:00 +5°C° 0 mm 3 mps 744 mmHg 96%
02:00 +5°C° 0 mm 3 mps 744 mmHg 97%
03:00 +5°C° 0 mm 3 mps 744 mmHg 96%
04:00 +4°C° 0 mm 3 mps 745 mmHg 96%
05:00 +5°C° 0 mm 2 mps 745 mmHg 95%
06:00 +5°C° 0 mm 3 mps 745 mmHg 90%
07:00 +7°C° 0 mm 3 mps 746 mmHg 86%
08:00 +9°C° 0 mm 3 mps 746 mmHg 81%
09:00 +10°C° 0 mm 3 mps 746 mmHg 75%
10:00 +11°C° 0 mm 3 mps 746 mmHg 69%
11:00 +12°C° 0 mm 3 mps 746 mmHg 63%
12:00 +13°C° 0.2 mm 4 mps 746 mmHg 61%
13:00 +13°C° 0.2 mm 4 mps 746 mmHg 59%
14:00 +14°C° 0.2 mm 5 mps 746 mmHg 57%
15:00 +14°C° 0.1 mm 4 mps 746 mmHg 59%
16:00 +13°C° 0.1 mm 4 mps 746 mmHg 60%
17:00 +13°C° 0.1 mm 3 mps 746 mmHg 61%
18:00 +12°C° 0.1 mm 3 mps 747 mmHg 69%
19:00 +11°C° 0.1 mm 3 mps 747 mmHg 76%
20:00 +9°C° 0.1 mm 3 mps 747 mmHg 84%
21:00 +9°C° 0.2 mm 3 mps 747 mmHg 86%
22:00 +9°C° 0.2 mm 2 mps 747 mmHg 89%
23:00 +9°C° 0.2 mm 2 mps 747 mmHg 91%

18 April, Sunday

Time Temperature Precipitation Wind Pressure Humidity
00:00 +9°C° 1.7 mm 2 mps 747 mmHg 93%
01:00 +8°C° 1.7 mm 2 mps 747 mmHg 94%
02:00 +8°C° 1.7 mm 2 mps 747 mmHg 96%
03:00 +8°C° 0.4 mm 2 mps 747 mmHg 96%
04:00 +9°C° 0.4 mm 1 mps 747 mmHg 95%
05:00 +8°C° 0.4 mm 1 mps 747 mmHg 95%
06:00 +8°C° 0.1 mm 1 mps 747 mmHg 93%
07:00 +9°C° 0.1 mm 1 mps 747 mmHg 92%
08:00 +9°C° 0.1 mm 1 mps 748 mmHg 90%
09:00 +9°C° 0 mm 1 mps 748 mmHg 87%
10:00 +10°C° 0 mm 1 mps 748 mmHg 83%
11:00 +10°C° 0 mm 1 mps 748 mmHg 79%
12:00 +11°C° 0.1 mm 1 mps 748 mmHg 76%
13:00 +12°C° 0.1 mm 1 mps 748 mmHg 72%
14:00 +12°C° 0.1 mm 2 mps 748 mmHg 68%
15:00 +12°C° 0 mm 2 mps 748 mmHg 71%
16:00 +12°C° 0 mm 2 mps 748 mmHg 74%
17:00 +11°C° 0 mm 3 mps 748 mmHg 76%
18:00 +10°C° 0 mm 3 mps 748 mmHg 81%
19:00 +9°C° 0 mm 3 mps 748 mmHg 86%
20:00 +8°C° 0 mm 2 mps 749 mmHg 91%
21:00 +8°C° 0 mm 2 mps 749 mmHg 91%
22:00 +7°C° 0 mm 2 mps 749 mmHg 92%
23:00 +7°C° 0 mm 2 mps 749 mmHg 93%

19 April, Monday

Time Temperature Precipitation Wind Pressure Humidity
00:00 +6°C° 0 mm 2 mps 749 mmHg 94%
01:00 +6°C° 0 mm 2 mps 748 mmHg 94%
02:00 +6°C° 0 mm 2 mps 748 mmHg 95%
03:00 +5°C° 0 mm 3 mps 748 mmHg 96%
04:00 +5°C° 0 mm 3 mps 748 mmHg 97%
05:00 +5°C° 0 mm 3 mps 748 mmHg 97%
06:00 +7°C° 0.1 mm 3 mps 747 mmHg 94%
07:00 +7°C° 0.1 mm 4 mps 747 mmHg 91%
08:00 +8°C° 0.1 mm 5 mps 747 mmHg 87%
09:00 +9°C° 0.2 mm 5 mps 747 mmHg 87%
10:00 +9°C° 0.2 mm 5 mps 747 mmHg 87%
11:00 +9°C° 0.2 mm 6 mps 747 mmHg 87%
12:00 +10°C° 0.3 mm 6 mps 746 mmHg 79%
13:00 +11°C° 0.3 mm 7 mps 746 mmHg 71%
14:00 +12°C° 0.3 mm 7 mps 745 mmHg 63%
15:00 +12°C° 0.1 mm 7 mps 745 mmHg 65%
16:00 +12°C° 0.1 mm 7 mps 745 mmHg 67%
17:00 +11°C° 0.1 mm 7 mps 744 mmHg 69%
18:00 +10°C° 0.2 mm 6 mps 744 mmHg 73%
19:00 +9°C° 0.2 mm 6 mps 744 mmHg 77%
20:00 +9°C° 0.2 mm 5 mps 744 mmHg 81%
21:00 +8°C° 0.4 mm 5 mps 743 mmHg 84%
22:00 +8°C° 0.4 mm 6 mps 743 mmHg 86%
23:00 +8°C° 0.4 mm 6 mps 742 mmHg 89%

20 April, Tuesday

Time Temperature Precipitation Wind Pressure Humidity
00:00 +8°C° 0.1 mm 7 mps 741 mmHg 87%
01:00 +8°C° 0.1 mm 7 mps 741 mmHg 86%
02:00 +6°C° 0.1 mm 8 mps 740 mmHg 85%
03:00 +6°C° 0.5 mm 8 mps 740 mmHg 87%
04:00 +6°C° 0.5 mm 8 mps 739 mmHg 89%
05:00 +5°C° 0.5 mm 8 mps 739 mmHg 91%
06:00 +5°C° 0.8 mm 8 mps 738 mmHg 91%
07:00 +5°C° 0.8 mm 8 mps 737 mmHg 91%
08:00 +4°C° 0.8 mm 8 mps 737 mmHg 91%
09:00 +4°C° 0.6 mm 8 mps 736 mmHg 93%
10:00 +2°C° 0.6 mm 8 mps 736 mmHg 94%
11:00 +1°C° 0.6 mm 8 mps 735 mmHg 95%
12:00 +1°C° 0.2 mm 8 mps 735 mmHg 95%
13:00 +1°C° 0.2 mm 8 mps 734 mmHg 96%
14:00 0°C° 0.2 mm 8 mps 734 mmHg 96%
15:00 0°C° 1.2 mm 8 mps 733 mmHg 96%
16:00 0°C° 1.2 mm 7 mps 733 mmHg 96%
17:00 0°C° 1.2 mm 7 mps 732 mmHg 96%
18:00 -1°C° 1.4 mm 7 mps 732 mmHg 96%
19:00 -1°C° 1.4 mm 6 mps 731 mmHg 97%
20:00 -1°C° 1.4 mm 6 mps 731 mmHg 97%
21:00 +1°C° 0.6 mm 5 mps 731 mmHg 97%
22:00 +2°C° 0.6 mm 5 mps 730 mmHg 97%
23:00 +2°C° 0.6 mm 5 mps 730 mmHg 97%
Show more